Вернуться в каталог

ARIANE 5 DEB

АктивенHEO
NORAD 43382·DEBRIS·🇫🇷 France

Запущен Jun 12, 2008 с Guiana Space Centre

Loading…

Ближайшие Пролёты (ближайшие 24 часа)

TLE

СвежийSource: Space-Track

Эпоха: Sep 14, 2026, 04:53 UTC

1 43382U 08030E   26257.20414889  .00001232  00000-0  71350-3 0  9996
2 43382   2.0317 325.0289 7037795 348.9505   1.5339  2.56638459115675

Отслеживайте ARIANE 5 DEB в реальном времени с AllMySat

Download on the App Store